Location: Unspecified
(58.9933°N, 5.6375°E)
Time: 22:01:58
(UTC+02:00)

Resurs 1-4 Rocket - Visible Passes

Search period start: 23 June 2018 00:00
Search period end: 03 July 2018 00:00
Orbit: 800 x 813 km, 98.5° (Epoch: 22 June)

Date Brightness Start Highest point End Pass type
(mag) Time Alt. Az. Time Alt. Az. Time Alt. Az.
23 Jun 4.4 02:05:19 10° NE 02:08:17 15° E 02:11:15 10° ESE visible
25 Jun 3.6 02:54:58 10° NNE 02:59:42 31° E 03:04:24 10° SSE visible
26 Jun 4.0 02:30:43 10° NE 02:34:49 22° E 02:38:53 10° SE visible
27 Jun 4.4 02:06:46 10° NE 02:09:51 15° E 02:12:54 10° ESE visible
28 Jun 4.7 01:44:15 10° ENE 01:44:46 10° ENE 01:45:17 10° E visible
29 Jun 3.5 02:56:30 10° NNE 03:01:15 32° E 03:05:58 10° SSE visible
30 Jun 4.0 02:32:14 10° NE 02:36:22 22° E 02:40:29 10° SE visible
01 Jul 4.4 02:08:14 10° NE 02:11:24 16° E 02:14:32 10° ESE visible
02 Jul 4.6 01:45:21 10° ENE 01:46:20 10° ENE 01:47:18 10° E visible
